Flag for Turkey Weather past 2 weeks in Mersin, Turkey

Now
52 °F

Sprinkles. Fog.


Feels Like: 49 °F
Forecast: 45 / 58 °F
Wind: 8 mph from North

Location: Adana / Sakirpasa

Current Time: Dec 19, 2014 at 5:37:13 AM

Latest Report: Dec 19, 2014 at 4:50 AM


Visibility: 2 mi

Pressure: 30.07 "Hg

Humidity: 88%

Dew point: 48 °F

Location of MersinLocation

Historic Weather in Mersin — Graph

°F

Mersin temperature yesterday

Maximum temperature yesterday: 64 °F (at 12:20 PM)
Minimum temperature yesterday: 50 °F (at 1:50 AM)
Average temperature yesterday: 56 °F

Past Weeks' High & Low Weather Summary

 TemperatureHumidityPressure
High72 °F (Dec 7, 11:50 AM)94% (Dec 9, 8:50 AM)30.30 "Hg (Dec 9, 8:50 AM)
Low43 °F (Dec 15, 4:50 AM)32% (Dec 16, 12:20 PM)29.86 "Hg (Dec 9, 3:20 AM)
Average58 °F69%30.11 "Hg
* Reported Dec 4 4:20 AM — Dec 19 4:20 AM, Mersin, Weather by CustomWeather, © 2014

Note: Actual official high and low records may vary slightly from our data, if they occured in-between our weather recording intervals... More about our weather records

Advertising

Mersin weather history for previous 24 hours

 ConditionsComfort  
Time TempWeatherWind HumidityBarometerVisibility
4:20 AM
Dec 19
52 °FSprinkles. Fog.8 mph88%30.07 "Hg2 mi
3:50 AM54 °FSprinkles. Fog.10 mph82%30.07 "Hg2 mi
3:20 AM54 °FSprinkles. Fog.9 mph82%30.07 "Hg2 mi
2:50 AM54 °FSprinkles. Fog.7 mph77%30.09 "Hg2 mi
2:20 AM55 °FSprinkles. Fog.7 mph72%30.09 "Hg2 mi
1:50 AM54 °FSprinkles. Fog.6 mph82%30.09 "Hg2 mi
1:20 AM55 °FSprinkles. Partly cloudy.6 mph67%30.09 "Hg2 mi
12:50 AM57 °FSprinkles. Partly cloudy.6 mph59%30.07 "Hg2 mi
12:20 AM59 °FPartly cloudy.7 mph51%30.07 "Hg2 mi
11:50 PM
Dec 18
57 °FPartly cloudy.6 mph59%30.07 "Hg2 mi
11:20 PM57 °FPartly cloudy.3 mph59%30.07 "Hg2 mi
10:20 PM57 °FPartly cloudy.8 mph55%30.07 "Hg2 mi
9:50 PM57 °FPartly cloudy.8 mph55%30.07 "Hg2 mi
9:20 PM57 °FPartly cloudy.7 mph59%30.07 "Hg2 mi
8:50 PM57 °FPartly cloudy.7 mph59%30.07 "Hg1 mi
8:20 PM57 °FPartly cloudy.7 mph59%30.07 "Hg1 mi
7:50 PM57 °FPartly cloudy.3 mph63%30.07 "Hg1 mi
7:20 PM55 °FPartly cloudy.3 mph67%30.07 "Hg1 mi
6:50 PM55 °FPassing clouds.2 mph72%30.07 "Hg1 mi
6:20 PM55 °FPassing clouds.3 mph72%30.07 "Hg1 mi
5:50 PM55 °FPassing clouds.2 mph67%30.07 "Hg1 mi
5:20 PM55 °FSnow. Passing clouds.2 mph63%30.07 "Hg2 mi
4:50 PM57 °FPassing clouds.3 mph55%30.07 "Hg2 mi
4:20 PM59 °FScattered clouds.5 mph51%30.07 "Hg2 mi
3:50 PM61 °FScattered clouds.5 mph52%30.07 "HgN/A
3:20 PM64 °FScattered clouds.3 mph46%30.07 "HgN/A
2:50 PM64 °FScattered clouds.6 mph43%30.07 "HgN/A
2:20 PM64 °FScattered clouds.7 mph40%30.07 "HgN/A
1:50 PM64 °FScattered clouds.7 mph40%30.07 "HgN/A
1:20 PM64 °FBroken clouds.8 mph40%30.07 "HgN/A
12:50 PM64 °FBroken clouds.7 mph43%30.07 "HgN/A
12:20 PM64 °FBroken clouds.8 mph40%30.09 "HgN/A
11:50 AM63 °FBroken clouds.8 mph49%30.09 "HgN/A
11:20 AM61 °FBroken clouds.9 mph48%30.09 "HgN/A
10:50 AM61 °FBroken clouds.9 mph48%30.12 "HgN/A
10:20 AM59 °FBroken clouds.6 mph48%30.12 "HgN/A
9:50 AM57 °FBroken clouds.6 mph55%30.12 "HgN/A
9:20 AM57 °FBroken clouds.3 mph59%30.15 "HgN/A
8:50 AM55 °FBroken clouds.5 mph63%30.15 "HgN/A
8:20 AM55 °FBroken clouds.5 mph63%30.12 "HgN/A
7:50 AM52 °FBroken clouds.7 mph72%30.12 "HgN/A
7:20 AM52 °FBroken clouds.5 mph72%30.12 "Hg3 mi
6:50 AM52 °FBroken clouds.3 mph72%30.15 "Hg3 mi
6:20 AM52 °FPartly cloudy.5 mph72%30.12 "Hg3 mi
5:20 AM52 °FFog.5 mph72%30.12 "Hg2 mi
Weather by CustomWeather, © 2014

See weather overviewHow to use our weather pages